Wind_Speed
28 29 23 23 26 26 27 26 26 24 29 29 26 24 32 11 21 18 17 15 16 18 21 22 23 22 20 18 20 19 21 22 24 19 19 17 16 15 14 12 11 10 10 11
34 32 29 28 31 33 34 34 28 30 25 33 31 28 30 22 25 23 20 16 17 16 15 16 19 21 21 21 22 21 22 23 26 24 21 18 16 16 15 13 11 12 11 10
40 36 38 36 35 35 38 35 32 31 33 39 36 31 33 25 32 29 25 22 19 15 16 12 16 19 22 23 22 23 23 25 26 27 21 20 19 18 17 15 12 13 12 12
47 45 44 44 42 40 39 37 37 38 39 33 41 37 35 39 29 35 30 26 22 21 18 12 15 17 21 24 25 26 25 27 27 28 25 22 21 20 19 17 14 14 12 12
49 51 50 51 48 47 42 42 42 42 43 44 36 42 30 37 37 38 34 30 26 24 20 14 16 16 19 23 26 28 27 29 29 28 27 24 23 22 20 17 15 15 13 11
50 54 55 58 56 54 50 48 48 48 47 51 47 41 42 39 36 35 40 36 30 28 22 19 19 22 21 20 23 28 29 30 30 29 27 26 25 23 20 19 17 15 13 12
40 50 56 58 63 60 57 53 52 51 51 53 46 49 43 37 31 33 37 39 36 32 28 27 21 19 20 21 20 25 30 30 31 31 29 27 26 23 20 21 18 15 14 12
31 28 44 50 60 58 63 59 55 51 45 52 47 52 52 43 36 35 32 43 40 37 34 31 25 23 21 22 25 26 29 31 31 32 31 29 28 25 22 21 20 18 16 14
35 38 28 46 49 52 46 53 58 36 30 38 37 43 46 42 51 49 39 43 40 41 41 33 29 26 23 23 23 27 31 35 34 32 32 32 30 27 22 22 21 20 18 17
47 46 38 43 44 52 52 36 51 48 42 39 37 34 36 44 50 51 53 43 44 38 43 36 34 30 24 22 21 26 31 36 37 36 33 33 32 28 25 24 22 22 19 18
47 52 49 51 47 42 46 54 46 42 47 40 33 34 30 30 40 50 47 51 44 34 41 38 36 32 28 26 23 23 30 35 39 37 35 34 34 31 29 27 23 22 21 19
47 50 50 50 43 48 48 33 48 42 43 47 36 30 26 28 27 39 43 47 47 44 41 37 39 37 34 31 24 22 27 32 36 38 37 35 36 36 32 30 26 23 22 22
46 52 49 48 48 49 54 50 52 47 43 42 45 42 22 31 31 29 35 41 42 47 47 42 41 44 40 35 28 23 25 28 34 38 39 37 37 37 33 31 29 24 24 24
49 51 49 43 29 37 40 46 44 44 48 46 43 40 33 38 29 34 39 40 39 45 48 44 41 47 44 38 32 26 25 27 33 37 40 38 37 35 34 33 33 28 26 26
44 49 48 52 47 48 53 45 52 55 51 52 49 39 47 34 34 34 42 39 42 49 56 55 53 48 46 39 36 30 28 27 30 34 38 36 36 36 35 36 35 32 29 27
35 41 44 53 53 55 56 60 62 60 59 67 68 61 57 51 44 45 44 48 52 57 60 61 55 52 50 41 37 34 28 26 29 32 35 36 38 38 35 36 36 34 31 29
26 31 31 38 43 54 59 59 57 57 58 59 66 68 62 62 47 51 57 53 52 51 56 55 57 55 50 42 41 33 28 30 30 31 35 37 37 37 37 36 38 35 32 31
30 28 31 31 29 41 54 53 52 52 60 58 60 69 66 62 53 59 59 51 47 47 54 57 57 56 50 45 43 36 30 29 29 31 33 37 37 35 37 37 37 35 33 31
31 33 34 36 33 33 33 32 53 68 64 63 66 65 72 73 65 65 64 57 49 48 50 57 60 57 54 47 42 37 34 30 29 29 30 35 35 32 33 36 36 36 35 33
18 29 38 35 37 33 22 39 49 61 63 58 57 56 63 70 75 69 60 57 55 51 49 58 60 60 54 47 45 43 37 33 26 26 28 32 35 34 31 33 37 38 38 35
15 20 24 34 43 39 32 46 46 55 59 59 61 50 50 64 70 78 72 59 53 53 50 58 63 62 54 50 48 43 40 34 27 28 29 32 35 35 33 33 36 37 38 38
6 11 17 24 31 41 48 38 43 48 56 56 59 58 58 54 68 77 68 57 54 51 53 55 61 62 60 55 51 46 41 39 35 33 28 31 32 34 36 35 33 36 38 38
5 4 8 9 16 27 36 38 41 46 49 52 54 56 51 57 71 73 72 63 51 53 54 54 60 60 65 61 55 50 46 43 37 35 29 27 30 35 35 36 36 33 35 37
11 7 1 7 5 8 9 26 34 35 41 44 50 56 45 54 64 69 70 63 54 51 52 53 59 62 64 63 59 58 47 47 44 43 34 31 27 30 34 36 37 34 32 33
5 4 2 4 8 1 4 9 29 33 35 36 40 48 44 41 56 65 64 57 54 53 51 51 58 61 63 63 63 57 52 47 46 37 37 37 34 29 30 33 35 35 35 33
6 3 4 4 4 8 10 12 12 39 37 31 32 41 40 44 52 59 59 55 50 47 45 47 54 59 62 64 64 61 58 55 48 43 47 44 38 28 28 32 34 36 36 35
Wind_Direction
244 245 249 245 237 229 229 237 222 225 229 235 228 222 242 226 225 216 226 222 219 216 219 219 219 220 223 216 210 204 199 198 191 187 185 183 176 168 156 144 143 140 144 140
241 246 241 236 234 228 233 231 227 213 225 229 229 226 247 239 225 223 219 220 223 231 222 222 222 219 221 215 209 204 203 199 197 190 187 186 178 172 161 158 152 152 154 147
242 239 236 235 236 235 233 233 228 221 223 228 224 227 223 226 232 226 220 221 229 237 223 235 222 214 218 215 211 206 204 202 200 199 192 191 184 178 174 170 161 159 159 151
240 234 235 237 234 233 236 233 231 225 221 233 226 225 227 226 227 232 229 232 232 237 244 269 251 227 213 212 211 210 206 203 201 203 199 198 195 187 184 176 168 169 170 165
239 236 231 233 235 230 230 229 229 231 226 228 222 227 214 235 225 228 231 233 233 231 235 251 247 233 221 216 211 211 209 208 201 202 204 203 200 195 188 184 182 177 177 180
240 235 228 231 229 231 224 224 226 229 228 228 224 221 217 219 237 209 235 233 235 228 232 236 243 251 244 230 226 214 212 211 205 203 205 205 207 203 195 194 194 185 186 185
246 239 237 229 227 225 225 223 223 225 228 233 227 228 220 217 216 226 240 232 235 226 229 235 233 246 248 249 236 227 215 214 212 208 205 207 210 209 204 202 198 192 197 200
234 243 241 236 229 231 226 220 225 227 229 237 233 230 229 214 208 211 221 247 237 229 228 232 230 234 248 251 246 233 217 219 216 215 209 210 213 212 210 211 205 198 201 203
238 236 240 233 233 225 222 226 220 220 233 238 237 239 235 234 223 201 204 225 241 237 233 229 232 237 248 251 246 239 224 216 216 217 215 212 215 214 210 214 214 207 203 204
239 242 238 244 241 237 221 214 225 218 216 223 226 232 241 237 235 223 213 210 223 241 234 229 233 236 243 247 241 234 226 219 216 213 215 214 215 214 212 215 216 212 208 211
240 240 236 242 244 240 231 225 209 220 221 219 220 222 223 242 249 235 230 231 228 213 240 228 234 237 236 237 237 228 225 223 220 217 216 216 216 217 213 214 216 214 212 213
241 240 238 240 245 240 228 224 223 217 216 220 216 217 213 228 242 243 226 228 227 226 229 233 234 235 237 240 242 235 226 228 225 223 219 218 220 220 218 216 216 215 215 217
245 243 241 233 234 236 235 225 220 217 215 220 219 204 216 212 221 222 230 224 221 219 224 226 230 233 233 238 241 246 232 230 229 222 223 220 222 224 223 222 223 219 220 220
244 242 234 226 226 227 234 222 219 211 218 211 211 215 210 217 220 221 224 222 215 215 219 224 227 231 228 234 238 244 240 231 232 226 222 224 223 225 226 223 226 222 223 221
248 243 236 232 214 217 221 212 225 217 206 208 212 215 199 214 234 244 226 213 213 209 213 214 216 218 229 227 236 243 242 233 234 228 224 224 227 226 224 221 223 223 225 223
242 241 237 234 222 221 220 227 228 226 222 214 204 204 191 205 194 208 222 218 214 215 214 218 222 223 227 228 234 237 242 235 230 231 226 222 226 227 226 227 224 224 226 225
242 235 236 239 234 225 224 226 231 231 226 225 222 218 203 194 197 204 217 215 220 222 220 220 221 223 225 227 232 234 240 238 229 223 228 223 224 228 227 229 226 224 226 226
237 233 227 229 225 225 225 226 228 229 225 224 227 219 213 201 198 206 218 212 214 218 218 217 220 223 224 223 227 231 235 240 235 223 225 225 226 227 228 229 225 225 228 228
238 235 229 228 234 236 224 225 225 228 226 227 226 220 215 213 211 217 225 216 211 215 215 215 217 218 224 222 219 231 234 239 239 229 225 225 229 229 229 229 226 226 229 230
252 235 232 231 234 229 215 241 234 231 232 230 232 232 231 214 219 218 221 214 211 215 214 213 217 216 221 221 219 232 236 242 234 232 228 226 226 228 228 227 228 229 230 230
252 243 242 236 240 237 221 232 227 227 225 224 225 221 228 225 216 219 215 212 211 213 215 212 217 217 217 221 224 229 236 238 239 239 234 227 227 226 227 228 230 232 232 232
249 250 242 240 241 239 241 244 236 225 224 225 225 230 232 228 217 219 215 213 210 213 212 210 215 218 216 219 224 224 232 233 230 235 234 231 229 230 228 231 233 235 235 233
23 273 219 214 228 239 238 235 228 223 225 222 224 229 232 232 217 214 216 214 207 211 212 212 214 215 219 220 222 221 225 228 224 232 232 232 229 230 230 230 233 236 237 235
352 344 344 270 282 290 258 215 203 216 211 220 223 224 231 228 217 214 215 214 207 210 212 214 215 216 217 222 222 226 222 231 214 220 229 235 233 234 232 232 234 236 236 235
18 21 325 297 296 20 205 183 205 196 204 212 214 220 230 224 216 214 214 212 209 210 212 212 217 217 218 221 222 220 224 227 233 225 231 235 238 240 237 231 230 233 236 235
295 280 288 321 328 239 257 204 231 200 199 208 215 218 217 211 212 212 210 209 206 209 211 210 215 219 220 221 223 224 224 224 223 228 229 238 239 238 240 235 229 232 234 235
Height
5840 5842 5848 5852 5855 5858 5859 5863 5869 5875 5876 5877 5881 5882 5873 5876 5886 5890 5891 5893 5896 5898 5899 5901 5903 5906 5908 5910 5914 5917 5920 5923 5926 5928 5930 5931 5933 5936 5938 5940 5941 5942 5942 5943
5832 5837 5841 5844 5846 5850 5852 5857 5862 5868 5872 5872 5875 5879 5879 5881 5886 5887 5889 5892 5894 5896 5898 5900 5901 5903 5906 5909 5912 5915 5919 5922 5925 5927 5929 5931 5934 5936 5939 5941 5942 5943 5943 5944
5822 5830 5831 5835 5839 5843 5847 5851 5857 5861 5864 5864 5870 5874 5877 5872 5882 5883 5886 5889 5891 5895 5897 5898 5900 5901 5903 5907 5910 5914 5917 5920 5924 5927 5929 5932 5934 5936 5939 5942 5943 5944 5945 5945
5810 5817 5821 5826 5830 5836 5840 5845 5849 5852 5856 5859 5863 5867 5871 5873 5873 5881 5882 5886 5889 5892 5895 5898 5899 5899 5902 5904 5907 5911 5915 5918 5922 5926 5928 5932 5934 5936 5938 5941 5944 5945 5947 5947
5799 5803 5810 5813 5821 5825 5833 5835 5840 5843 5847 5851 5855 5860 5870 5871 5868 5875 5878 5882 5886 5890 5893 5895 5897 5898 5900 5901 5904 5908 5912 5916 5920 5924 5928 5931 5934 5936 5939 5942 5944 5946 5947 5949
5786 5789 5795 5801 5806 5814 5822 5825 5830 5834 5837 5836 5848 5853 5860 5863 5867 5872 5873 5877 5882 5886 5890 5892 5894 5895 5898 5899 5902 5906 5911 5915 5919 5922 5926 5930 5933 5936 5939 5941 5944 5946 5948 5950
5774 5777 5780 5788 5791 5801 5808 5816 5818 5822 5822 5829 5845 5845 5852 5863 5866 5871 5875 5873 5876 5881 5885 5887 5889 5892 5895 5898 5901 5904 5909 5913 5917 5921 5925 5929 5931 5935 5938 5940 5943 5946 5948 5950
5763 5770 5769 5774 5780 5789 5794 5804 5809 5812 5820 5828 5836 5834 5840 5852 5860 5867 5872 5872 5871 5874 5879 5881 5885 5888 5891 5893 5897 5901 5905 5910 5915 5919 5923 5926 5929 5933 5937 5940 5943 5945 5947 5949
5756 5759 5760 5760 5766 5774 5784 5785 5804 5811 5822 5824 5829 5834 5839 5841 5848 5854 5858 5868 5868 5868 5872 5878 5881 5883 5887 5889 5892 5896 5901 5904 5910 5916 5919 5923 5927 5931 5935 5938 5941 5944 5947 5949
5743 5748 5753 5752 5755 5762 5768 5785 5789 5792 5802 5809 5823 5830 5829 5832 5837 5845 5852 5857 5865 5866 5867 5873 5876 5879 5882 5885 5887 5889 5895 5899 5904 5909 5915 5920 5924 5928 5932 5935 5939 5942 5945 5948
5730 5733 5742 5740 5745 5755 5760 5767 5770 5784 5792 5801 5813 5823 5830 5828 5826 5834 5843 5850 5857 5865 5862 5867 5873 5876 5878 5881 5883 5885 5889 5894 5899 5906 5911 5916 5921 5925 5929 5932 5936 5940 5944 5947
5714 5718 5725 5733 5735 5739 5747 5755 5763 5772 5781 5789 5805 5819 5822 5825 5823 5824 5833 5840 5847 5854 5860 5862 5867 5871 5873 5877 5880 5883 5885 5889 5895 5902 5906 5912 5916 5920 5925 5929 5933 5937 5941 5944
5699 5703 5711 5719 5723 5726 5732 5741 5748 5758 5773 5782 5791 5802 5809 5811 5814 5818 5825 5831 5838 5844 5851 5857 5860 5863 5868 5872 5877 5880 5882 5886 5889 5895 5901 5906 5911 5916 5922 5927 5930 5934 5937 5941
5681 5687 5694 5704 5712 5709 5718 5725 5732 5742 5756 5769 5775 5795 5804 5804 5805 5809 5815 5823 5829 5836 5843 5850 5855 5857 5863 5868 5873 5875 5878 5880 5883 5889 5895 5901 5907 5913 5918 5922 5926 5930 5934 5937
5665 5671 5679 5685 5690 5694 5702 5709 5717 5726 5738 5751 5769 5776 5787 5797 5803 5803 5807 5811 5818 5821 5828 5836 5844 5852 5856 5863 5867 5871 5873 5875 5879 5884 5891 5898 5903 5907 5911 5915 5920 5925 5929 5933
5652 5657 5663 5667 5675 5682 5687 5695 5703 5714 5725 5730 5741 5747 5764 5770 5773 5783 5794 5799 5803 5808 5816 5826 5837 5844 5850 5856 5862 5866 5869 5872 5875 5881 5887 5892 5896 5901 5907 5911 5915 5920 5925 5928
5644 5648 5652 5656 5663 5672 5672 5684 5695 5705 5714 5723 5730 5749 5751 5756 5766 5771 5779 5786 5799 5806 5812 5821 5829 5835 5844 5852 5856 5862 5865 5867 5870 5876 5879 5884 5889 5895 5902 5906 5910 5916 5920 5923
5638 5640 5643 5647 5653 5653 5668 5677 5683 5685 5690 5706 5715 5726 5742 5756 5755 5759 5765 5781 5789 5796 5804 5813 5822 5829 5838 5845 5850 5855 5859 5863 5866 5871 5875 5879 5884 5889 5895 5900 5906 5911 5915 5919
5630 5632 5634 5637 5642 5650 5657 5664 5657 5666 5683 5695 5699 5708 5722 5738 5746 5753 5761 5772 5779 5788 5796 5804 5812 5821 5828 5838 5846 5850 5854 5859 5862 5867 5871 5876 5880 5884 5889 5895 5901 5906 5909 5914
5623 5623 5625 5630 5633 5637 5649 5643 5651 5660 5670 5686 5695 5705 5710 5723 5729 5746 5746 5753 5769 5779 5787 5796 5804 5812 5821 5831 5839 5843 5848 5853 5858 5863 5867 5870 5874 5879 5884 5890 5895 5899 5904 5909
5615 5617 5618 5622 5622 5626 5634 5625 5639 5646 5663 5668 5675 5683 5690 5700 5720 5717 5735 5749 5761 5770 5777 5787 5796 5804 5815 5823 5830 5837 5842 5848 5854 5855 5858 5863 5868 5873 5878 5882 5887 5892 5898 5902
5613 5611 5612 5615 5615 5616 5617 5625 5631 5638 5644 5656 5665 5675 5683 5686 5697 5720 5734 5745 5752 5759 5767 5777 5786 5797 5806 5814 5821 5828 5836 5841 5844 5849 5853 5858 5863 5867 5871 5877 5881 5885 5890 5895
5612 5611 5609 5608 5609 5607 5610 5612 5617 5626 5636 5647 5657 5667 5674 5682 5696 5710 5719 5733 5743 5752 5759 5768 5778 5788 5796 5804 5812 5818 5827 5832 5837 5843 5848 5851 5855 5860 5865 5870 5875 5879 5884 5889
5611 5608 5606 5604 5603 5602 5603 5601 5608 5619 5629 5638 5649 5659 5669 5673 5687 5700 5710 5722 5735 5743 5752 5760 5769 5777 5786 5796 5804 5810 5820 5824 5829 5835 5840 5845 5849 5854 5859 5863 5868 5873 5877 5881
5613 5610 5607 5605 5601 5600 5601 5605 5608 5612 5623 5634 5642 5652 5660 5668 5677 5688 5701 5714 5726 5735 5744 5753 5760 5768 5777 5787 5795 5803 5812 5819 5823 5826 5832 5838 5842 5847 5852 5855 5860 5866 5870 5873
5615 5611 5608 5605 5602 5601 5602 5603 5603 5609 5617 5628 5636 5645 5654 5661 5669 5681 5695 5707 5717 5725 5736 5744 5751 5758 5767 5776 5786 5794 5802 5809 5816 5821 5825 5831 5837 5841 5845 5847 5853 5857 5863 5867